Regional Weather Roundup
Issued by NWS

Home | Current Version | Previous Version | Graphics & Text | Print | Product List | Glossary On
Versions: 1 2 3 4 5 6 7 8 9 10 11 12 13 14 15 16 17 18 19 20 21 22 23 24 25 26 27 28 29 30 31 32 33 34 35 36 37 38 39 40 41 42 43 44 45 46 47 48 49 50
000
ASUS43 KLSX 040859
RWRMO

WEATHER SUMMARY FOR MISSOURI
NATIONAL WEATHER SERVICE SPRINGFIELD MO
400 AM CDT SAT JUL 04 2015

NOTE: "FAIR" INDICATES FEW OR NO CLOUDS BELOW 12,000 FEET WITH NO
       SIGNIFICANT WEATHER AND/OR OBSTRUCTIONS TO VISIBILITY.
       CURRENT SKY AND/OR WEATHER CONDITIONS ARE NOT AVAILABLE FOR
       CHILLICOTHE AND FARMINGTON.

MOZ001>031-035>038-043-044-053-054-041000-
...NORTHERN AND WESTERN MISSOURI...

CITY           SKY/WX    TMP DP  RH WIND       PRES   REMARKS
KANSAS CTY INT CLEAR     64  58  80 E5        29.98S
KANSAS C DTWN  CLEAR     67  62  84 CALM      29.97F
LEE`S SUMMIT   CLEAR     64  60  87 NE3       29.99S
ST JOSEPH      CLEAR     59  58  96 N3        29.98F
CHILLICOTHE      N/A     60  58  92 CALM      29.99F
KIRKSVILLE     CLEAR     57  55  93 CALM      29.99F FOG

$$
MOZ066>068-077>081-088>096-101>105-041000-
...SOUTHWEST MISSOURI...

CITY           SKY/WX    TMP DP  RH WIND       PRES   REMARKS
SPRINGFIELD    PTCLDY    66  63  90 N5        29.96F
JOPLIN         PTCLDY    68  66  93 NE5       29.96F FOG

$$
MOZ032>034-039>042-045>050-055>058-069>072-041000-
...CENTRAL MISSOURI...

CITY           SKY/WX    TMP DP  RH WIND       PRES   REMARKS
COLUMBIA       CLEAR     64  59  83 N3        29.97S
JEFFERSON CITY CLEAR     63  61  93 N3        29.96S
ROLLA          CLEAR     62  60  93 CALM      29.96S
SEDALIA        CLEAR     63  60  90 CALM      29.99S
WHITEMAN AFB   CLEAR     61  59  94 N2        29.97S
OSAGE BEACH    CLEAR     61  57  88 CALM      29.97S

$$
MOZ051-052-059>065-041000-
...EAST CENTRAL MISSOURI...

CITY           SKY/WX    TMP DP  RH WIND       PRES   REMARKS
ST LOUIS INTL  CLEAR     70  65  84 CALM      29.95S HAZE
SPIRIT OF STL  CLEAR     64  64 100 CALM      29.94S FOG
ST CHARLES     CLEAR     68  66  93 CALM      29.93F FOG

$$
MOZ072>076-082>087-097>100-106>115-041000-
...SOUTH CENTRAL AND SOUTHEAST MISSOURI...

CITY           SKY/WX    TMP DP  RH WIND       PRES   REMARKS
CAPE GIRARDEAU CLEAR     69  68  96 N5        29.91R
FARMINGTON     CLEAR     64  64 100 CALM      29.99R
POPLAR BLUFF   CLEAR     70  68  93 CALM      29.91R
WEST PLAINS    PTCLDY    66  62  87 N5        29.97S

$$



USA.gov is the U.S. government's official web portal to all federal, state and local government web resources and services.